STARLINK-5371, 55489

Orbit data source: Space-Track

STARLINK-5371, 55489 is a payload satellite owned by SpaceX/Seattle (US) in LEO that was launched on Thu, 02 Feb 2023 UTC via an FALCON 9 launch vehicle from the Air Force Eastern Test Range (AFETR). Payload-class satellites include a variety of spacecraft equipped with specific instruments for various scientific and technological missions. These include communications satellites like Starlink; space stations such as the ISS; scientific satellites like the Hubble; Earth observation satellites from companies like Planet Labs, Umbra, and HawkEye 360; GPS; miniature CubeSats for education and research; and military/defense satellites.

Loading next visibility...
Identifier
55489, 2023-015AS
Orbit
LEO
Country
Flag of USUS
Related business
Manufacturer
SpaceX/Seattle
Mission
Operational Commercial Communications
Bus & Motor
STARLINK, Unknown motor
Mass
305 kg wet, ~290 kg dry
Launch date (UTC)
2023-02-02 (3 years ago)
Launch vehicle
FALCON 9
Launch site
Air Force Eastern Test Range (AFETR)
Object type
Payload
Rocket body
Debris
Shape & HBR
Box + 1 Pan, 10.1 m
Radar Cross Section
13.562 m², Large (>1 m²)

Expand to show TLE details & history
Last TLE update: 12 hours ago

TLE from 12 hours ago
0 STARLINK-5371
1 55489U 23015AS  25340.48433267 -.00000856  00000-0 -48270-4 0  9999
2 55489  43.0017 125.4158 0001132 305.4081  54.6655 15.02543870156583
Epoch: 2025-12-06T11:37Z
TLE epoch observation values (Epoch: 2025-12-06T11:37:26.342Z)
Latitude
-0.00006°
Longitude
-124.45543°
Altitude
558.379 km
Speed
7.584 km/s
True Right ascension
08h 21m 39s
True Declination
0° 00' 00"
Sunlit
Object was in full shadow at epoch
Visualization orbit readout
Latitude
Unknown
Longitude
Unknown
Altitude
Unknown
Speed
Unknown
Apparent Right ascension
Unknown
Apparent Declination
Unknown
Sunlit
N/A
Visualization observer readout
Local Sidereal Time
22:10:40
Azimuth
Unknown
Elevation
Unknown
Doppler factor
Unknown
Orbital elements
Apogee altitude
561.764 km
Perigee altitude
560.193 km
Semi-major axis
6,939.116 km
Eccentricity
0.00011
Inclination
43.0017°
RAAN
125.4158°
Arg. of periapsis
305.4081°
True anomaly
54.67608°
Mean anomaly
54.6655°
Eccentric anomaly
54.67079°
Mean motion
3.7548 °/min
Orbital period
95.88 mins
BSTAR
-0.00004827
Loading maneuver chart data...
Computing Atmospheric mass density...
Loading historical data...
Loading historical data...
Loading historical data...
Loading historical data...
Loading historical data...
Loading historical data...
Loading historical data...

Documentation

Showing up to 5 results
|